TimeAKST,TemperatureF,Dew PointF,Humidity,Sea Level PressureIn,VisibilityMPH,Wind Direction,Wind SpeedMPH,Gust SpeedMPH,PrecipitationIn,Events,Conditions,WindDirDegrees,DateUTC
12:54 AM,42.8,35.6,76,29.84,10.0,ESE,20.7,-,0.00,Rain,Light Rain,110,2014-01-30 09:54:00
12:56 AM,43.0,36.0,76,29.85,10.0,ESE,19.6,-,0.00,Rain,Light Rain,110,2014-01-30 09:56:00
1:33 AM,42.8,37.4,81,29.84,10.0,ESE,18.4,-,0.00,Rain,Light Rain,110,2014-01-30 10:33:00
1:56 AM,42.1,37.0,82,29.84,10.0,East,23.0,28.8,0.00,Rain,Light Rain,100,2014-01-30 10:56:00
3:56 AM,43.0,37.0,80,29.86,10.0,East,20.7,-,N/A,,Overcast,80,2014-01-30 12:56:00
4:56 AM,42.1,36.0,79,29.86,10.0,East,12.7,-,0.00,,Overcast,90,2014-01-30 13:56:00
5:56 AM,42.1,36.0,79,29.87,10.0,East,15.0,-,0.00,Rain,Light Rain,90,2014-01-30 14:56:00
6:56 AM,42.1,36.0,79,29.86,10.0,East,29.9,35.7,0.00,Rain,Light Rain,100,2014-01-30 15:56:00
7:54 AM,41.0,35.6,81,29.88,10.0,East,16.1,-,0.00,Rain,Light Rain,90,2014-01-30 16:54:00
7:56 AM,42.1,36.0,79,29.88,10.0,East,17.3,-,0.00,Rain,Light Rain,100,2014-01-30 16:56:00
8:56 AM,41.0,36.0,82,29.89,10.0,East,11.5,-,0.01,Rain,Light Rain,100,2014-01-30 17:56:00
9:56 AM,41.0,36.0,82,29.88,10.0,ESE,23.0,31.1,0.01,,Partly Cloudy,110,2014-01-30 18:56:00
10:56 AM,42.1,37.0,82,29.90,10.0,East,21.9,38.0,N/A,,Partly Cloudy,100,2014-01-30 19:56:00
11:15 AM,42.8,37.4,81,29.90,10.0,ESE,20.7,25.3,N/A,,Mostly Cloudy,110,2014-01-30 20:15:00
11:29 AM,42.8,37.4,81,29.90,10.0,ESE,19.6,25.3,N/A,,Overcast,120,2014-01-30 20:29:00
11:56 AM,42.1,37.0,82,29.91,10.0,ESE,24.2,39.1,N/A,,Partly Cloudy,110,2014-01-30 20:56:00
12:56 PM,42.1,37.9,85,29.91,10.0,ESE,26.5,-,N/A,,Clear,110,2014-01-30 21:56:00
1:56 PM,42.1,37.9,85,29.92,10.0,ESE,21.9,32.2,N/A,,Scattered Clouds,110,2014-01-30 22:56:00
2:28 PM,42.8,37.4,81,29.91,10.0,ESE,21.9,25.3,N/A,,Overcast,110,2014-01-30 23:28:00
2:56 PM,42.1,37.9,85,29.91,10.0,East,19.6,-,0.00,Rain,Light Rain,100,2014-01-30 23:56:00
3:44 PM,42.8,37.4,81,29.89,10.0,East,24.2,-,0.00,,Overcast,100,2014-01-31 00:44:00
3:56 PM,42.1,37.9,85,29.91,10.0,ESE,19.6,-,0.00,,Overcast,110,2014-01-31 00:56:00
4:42 PM,42.8,37.4,81,29.91,10.0,ESE,19.6,26.5,0.00,,Overcast,110,2014-01-31 01:42:00
4:56 PM,42.1,37.0,82,29.92,10.0,ESE,19.6,-,0.00,,Overcast,110,2014-01-31 01:56:00
5:56 PM,42.1,37.0,82,29.92,10.0,East,17.3,-,0.00,Rain,Light Rain,100,2014-01-31 02:56:00
6:56 PM,41.0,37.0,86,29.93,10.0,East,19.6,-,0.00,,Overcast,100,2014-01-31 03:56:00
7:56 PM,39.9,37.0,89,29.93,10.0,ESE,17.3,-,0.00,Rain,Light Rain,110,2014-01-31 04:56:00
8:09 PM,39.2,37.4,93,29.92,10.0,ESE,16.1,-,0.00,Rain,Light Rain,110,2014-01-31 05:09:00
8:56 PM,39.9,37.0,89,29.93,10.0,ESE,19.6,-,0.00,Rain,Light Rain,120,2014-01-31 05:56:00
9:10 PM,39.2,37.4,93,29.93,10.0,ESE,17.3,27.6,0.00,Rain,Light Rain,120,2014-01-31 06:10:00
9:56 PM,39.0,36.0,89,29.95,10.0,SE,9.2,-,0.01,Rain,Light Rain,130,2014-01-31 06:56:00
10:27 PM,39.2,35.6,87,29.95,10.0,SE,17.3,-,0.01,Rain,Light Rain,140,2014-01-31 07:27:00
10:56 PM,37.9,36.0,93,29.96,10.0,SSE,16.1,-,0.01,Rain,Light Rain,150,2014-01-31 07:56:00
11:12 PM,39.2,35.6,87,29.96,10.0,SE,17.3,-,0.01,Rain,Light Rain,140,2014-01-31 08:12:00
11:56 PM,37.9,36.0,93,29.98,10.0,ESE,6.9,-,0.01,,Overcast,120,2014-01-31 08:56:00